Location: Parkway Village
(35.0643°N, 89.9062°W)
Time: 14:22:09
(UTC+00:00)

BlueWalker 3 - Pass Details

Date: 17 August 2024
Orbit: 475 x 487 km, 53.2° (Epoch: 17 September)

Event Time Altitude Azimuth Distance (km) Brightness Sun altitude
Rises 10:11:44 0° 330° (NNW) 2,568 5.5 -14.1°
Maximum altitude 10:16:36 11° 25° (NNE) 1,612 5.3 -13.2°
Drops below altitude 10° 10:17:47 10° 43° (NE) 1,683 5.8 -12.9°
Sets 10:21:27 0° 80° (E) 2,561 7.2 -12.3°
